CZ-6A DEB, 54332

Orbit data source: Space-Track

CZ-6A DEB, 54332 is space debris in SSO originally from a launch on Fri, 11 Nov 2022 UTC launched from the Taiyaun Space Center, China (TSC). Debris objects in space refer to the collection of defunct objects orbiting the Earth. Examples of debris include non-operational satellites, rocket bodies, and fragments generated from explosions, collisions, or faulty payload assembly.

Loading next visibility...
Identifier
54332, 2022-151CB
Orbit
SSO
Country
Flag of CNCN / PRC
Related business
Manufacturer
SAST
Mission
Spacecraft
Bus & Motor
Unknown
Mass
Unknown
Launch date (UTC)
2022-11-11 (4 years ago)
Launch vehicle
Unknown
Launch site
Taiyaun Space Center, China (TSC)
Object type
Payload
Rocket body
Debris
Shape & HBR
Unknown shape, 0.1 m
Radar Cross Section
Medium (>0.1 m² and <1 m²)

Expand to show TLE details & history
Last TLE update: 16 hours ago

TLE from 16 hours ago
0 CZ-6A DEB
1 54332U 22151CB  26236.01055504  .00001224  00000-0  53586-3 0  9996
2 54332  98.7680 254.9915 0040189 135.6118 224.8294 14.25132137195576
Epoch: 2026-08-24T00:15Z
TLE epoch observation values (Epoch: 2026-08-24T00:15:11.955Z)
Latitude
-0.00006°
Longitude
-81.1067°
Altitude
831.512 km
Speed
7.427 km/s
True Right ascension
16h 59m 57s
True Declination
0° 00' 00"
Sunlit
Object was in daylight at epoch
Visualization orbit readout
Latitude
Unknown
Longitude
Unknown
Altitude
Unknown
Speed
Unknown
Apparent Right ascension
Unknown
Apparent Declination
Unknown
Sunlit
N/A
Visualization observer readout
Local Sidereal Time
07:25:11
Azimuth
Unknown
Elevation
Unknown
Doppler factor
Unknown
Orbital elements
Apogee altitude
834.072 km
Perigee altitude
776.334 km
Semi-major axis
7,183.34 km
Eccentricity
0.00402
Inclination
98.768°
RAAN
254.9915°
Arg. of periapsis
135.6118°
True anomaly
224.50588°
Mean anomaly
224.8294°
Eccentric anomaly
224.66752°
Mean motion
3.56495 °/min
Orbital period
100.98 mins
BSTAR
0.00053586
Loading maneuver chart data...
Computing Atmospheric mass density...
Loading historical data...
Loading historical data...
Loading historical data...
Loading historical data...
Loading historical data...
Loading historical data...
Loading historical data...

Documentation

Showing up to 5 results
|